Time,TemperatureF,DewpointF,PressureIn,WindDirection,WindDirectionDegrees,WindSpeedMPH,WindSpeedGustMPH,Humidity,HourlyPrecipIn,Conditions,Clouds,dailyrainin,SoftwareType,DateUTC
2013-02-14 00:02:00,29.0,23.0,-100.00,WNW,295,2.0,3.0,76,0.00,,,-99.99,,2013-02-14 05:02:00,
2013-02-14 00:11:00,29.0,23.0,-100.00,WNW,290,1.0,4.0,76,0.00,,,-99.99,,2013-02-14 05:11:00,
2013-02-14 00:22:00,29.0,23.0,-100.00,WNW,285,1.0,2.0,76,0.00,,,-99.99,,2013-02-14 05:22:00,
2013-02-14 00:32:00,29.0,23.0,-100.00,WNW,290,2.0,3.0,76,0.00,,,-99.99,,2013-02-14 05:32:00,
2013-02-14 00:42:00,29.0,22.0,-100.00,WNW,295,2.0,3.0,75,0.00,,,-99.99,,2013-02-14 05:42:00,
2013-02-14 00:52:00,29.0,22.0,-100.00,WNW,295,2.0,3.0,76,0.00,,,-99.99,,2013-02-14 05:52:00,
2013-02-14 01:02:00,29.0,22.0,-100.00,WNW,290,2.0,4.0,76,0.00,,,-99.99,,2013-02-14 06:02:00,
2013-02-14 01:11:00,28.0,22.0,-100.00,WNW,295,1.0,2.0,77,0.00,,,-99.99,,2013-02-14 06:11:00,
2013-02-14 01:21:00,28.0,22.0,-100.00,WNW,295,1.0,2.0,77,0.00,,,-99.99,,2013-02-14 06:21:00,
2013-02-14 01:32:00,29.0,23.0,-100.00,NNW,335,0.0,1.0,78,0.00,,,-99.99,,2013-02-14 06:32:00,
2013-02-14 01:42:00,29.0,23.0,-100.00,NW,305,1.0,2.0,78,0.00,,,-99.99,,2013-02-14 06:42:00,
2013-02-14 01:51:00,29.0,23.0,-100.00,WNW,300,1.0,2.0,78,0.00,,,-99.99,,2013-02-14 06:51:00,
2013-02-14 02:01:00,29.0,23.0,-100.00,WNW,300,0.0,2.0,77,0.00,,,-99.99,,2013-02-14 07:01:00,
2013-02-14 02:11:00,29.0,23.0,-100.00,NNW,340,1.0,1.0,77,0.00,,,-99.99,,2013-02-14 07:11:00,
2013-02-14 02:21:00,29.0,23.0,-100.00,NW,325,1.0,2.0,76,0.00,,,-99.99,,2013-02-14 07:21:00,
2013-02-14 02:42:00,29.0,23.0,-100.00,WNW,290,2.0,5.0,77,0.00,,,-99.99,,2013-02-14 07:42:00,
2013-02-14 02:51:00,29.0,23.0,-100.00,WNW,290,2.0,3.0,78,0.00,,,-99.99,,2013-02-14 07:51:00,
2013-02-14 03:01:00,28.0,23.0,-100.00,NW,305,2.0,3.0,79,0.00,,,-99.99,,2013-02-14 08:01:00,
2013-02-14 03:11:00,28.0,23.0,-100.00,WNW,300,1.0,4.0,79,0.00,,,-99.99,,2013-02-14 08:11:00,
2013-02-14 03:21:00,28.0,23.0,-100.00,West,280,1.0,2.0,79,0.00,,,-99.99,,2013-02-14 08:21:00,
2013-02-14 03:32:00,28.0,23.0,-100.00,WNW,300,2.0,2.0,80,0.00,,,-99.99,,2013-02-14 08:32:00,
2013-02-14 03:43:00,28.0,23.0,-100.00,WNW,285,1.0,2.0,80,0.00,,,-99.99,,2013-02-14 08:43:00,
2013-02-14 03:52:00,27.0,23.0,-100.00,North,-999,-999.0,-999.0,81,-99.99,,,-99.99,,2013-02-14 08:52:00,
2013-02-14 04:02:00,27.0,23.0,-100.00,WNW,295,1.0,2.0,81,0.00,,,-99.99,,2013-02-14 09:02:00,
2013-02-14 04:11:00,27.0,23.0,-100.00,WNW,290,1.0,2.0,81,0.00,,,-99.99,,2013-02-14 09:11:00,
2013-02-14 04:21:00,27.0,23.0,-100.00,NW,305,1.0,2.0,81,0.00,,,-99.99,,2013-02-14 09:21:00,
2013-02-14 04:32:00,28.0,23.0,-100.00,SW,235,0.0,2.0,81,0.00,,,-99.99,,2013-02-14 09:32:00,
2013-02-14 04:42:00,28.0,23.0,-100.00,NW,315,1.0,1.0,79,0.00,,,-99.99,,2013-02-14 09:42:00,
2013-02-14 04:51:00,28.0,22.0,-100.00,West,275,1.0,1.0,79,0.00,,,-99.99,,2013-02-14 09:51:00,
2013-02-14 05:02:00,27.0,22.0,-100.00,NW,305,2.0,3.0,80,0.00,,,-99.99,,2013-02-14 10:02:00,
2013-02-14 05:11:00,27.0,22.0,-100.00,WNW,295,2.0,3.0,80,0.00,,,-99.99,,2013-02-14 10:11:00,
2013-02-14 05:21:00,27.0,22.0,-100.00,NW,320,1.0,2.0,81,0.00,,,-99.99,,2013-02-14 10:21:00,
2013-02-14 05:32:00,27.0,22.0,-100.00,WNW,285,1.0,2.0,81,0.00,,,-99.99,,2013-02-14 10:32:00,
2013-02-14 05:42:00,27.0,22.0,-100.00,WNW,290,1.0,2.0,81,0.00,,,-99.99,,2013-02-14 10:42:00,
2013-02-14 05:52:00,27.0,22.0,-100.00,WNW,300,1.0,2.0,82,0.00,,,-99.99,,2013-02-14 10:52:00,
2013-02-14 06:02:00,27.0,22.0,-100.00,West,275,0.0,2.0,82,0.00,,,-99.99,,2013-02-14 11:02:00,
2013-02-14 06:11:00,26.0,22.0,-100.00,NW,305,2.0,3.0,82,0.00,,,-99.99,,2013-02-14 11:11:00,
2013-02-14 06:21:00,26.0,22.0,-100.00,WNW,285,1.0,3.0,83,0.00,,,-99.99,,2013-02-14 11:21:00,
2013-02-14 06:32:00,26.0,22.0,-100.00,NW,315,1.0,4.0,83,0.00,,,-99.99,,2013-02-14 11:32:00,
2013-02-14 06:42:00,27.0,22.0,-100.00,WNW,285,2.0,4.0,82,0.00,,,-99.99,,2013-02-14 11:42:00,
2013-02-14 06:52:00,27.0,22.0,-100.00,NW,315,1.0,2.0,81,0.00,,,-99.99,,2013-02-14 11:52:00,
2013-02-14 07:02:00,27.0,22.0,-100.00,WNW,285,1.0,3.0,80,0.00,,,-99.99,,2013-02-14 12:02:00,
2013-02-14 07:12:00,28.0,22.0,-100.00,West,280,1.0,3.0,79,0.00,,,-99.99,,2013-02-14 12:12:00,
2013-02-14 07:22:00,27.0,22.0,-100.00,NW,315,0.0,3.0,80,0.00,,,-99.99,,2013-02-14 12:22:00,
2013-02-14 07:32:00,27.0,22.0,-100.00,North,350,1.0,1.0,81,0.00,,,-99.99,,2013-02-14 12:32:00,
2013-02-14 07:42:00,29.0,23.0,-100.00,SE,140,1.0,3.0,78,0.00,,,-99.99,,2013-02-14 12:42:00,
2013-02-14 07:53:00,29.0,23.0,-100.00,WSW,250,1.0,2.0,76,0.00,,,-99.99,,2013-02-14 12:53:00,
2013-02-14 08:11:00,29.0,22.0,-100.00,West,280,1.0,3.0,75,0.00,,,-99.99,,2013-02-14 13:11:00,
2013-02-14 08:21:00,29.0,23.0,-100.00,WSW,245,1.0,3.0,74,0.00,,,-99.99,,2013-02-14 13:21:00,
2013-02-14 08:32:00,30.0,22.0,-100.00,West,280,1.0,2.0,73,0.00,,,-99.99,,2013-02-14 13:32:00,
2013-02-14 08:42:00,30.0,23.0,-100.00,South,170,2.0,5.0,72,0.00,,,-99.99,,2013-02-14 13:42:00,
2013-02-14 08:51:00,31.0,23.0,-100.00,West,270,1.0,4.0,69,0.00,,,-99.99,,2013-02-14 13:51:00,
2013-02-14 09:01:00,32.0,23.0,-100.00,SW,215,1.0,2.0,68,0.00,,,-99.99,,2013-02-14 14:01:00,
2013-02-14 09:11:00,32.0,23.0,-100.00,South,170,1.0,2.0,67,0.00,,,-99.99,,2013-02-14 14:11:00,
2013-02-14 09:21:00,33.0,23.0,-100.00,West,265,1.0,2.0,65,0.00,,,-99.99,,2013-02-14 14:21:00,
2013-02-14 09:32:00,33.0,23.0,-100.00,South,175,1.0,4.0,64,0.00,,,-99.99,,2013-02-14 14:32:00,
2013-02-14 09:42:00,34.0,23.0,-100.00,East,90,1.0,3.0,63,0.00,,,-99.99,,2013-02-14 14:42:00,
2013-02-14 09:52:00,34.0,23.0,-100.00,ESE,110,1.0,4.0,62,0.00,,,-99.99,,2013-02-14 14:52:00,
2013-02-14 10:02:00,36.0,23.0,-100.00,SSW,205,1.0,2.0,59,0.00,,,-99.99,,2013-02-14 15:02:00,
2013-02-14 10:11:00,36.0,23.0,-100.00,SE,140,1.0,3.0,59,0.00,,,-99.99,,2013-02-14 15:11:00,
2013-02-14 10:21:00,37.0,23.0,-100.00,SW,230,1.0,4.0,56,0.00,,,-99.99,,2013-02-14 15:21:00,
2013-02-14 10:32:00,37.0,23.0,-100.00,SSW,205,1.0,6.0,56,0.00,,,-99.99,,2013-02-14 15:32:00,
2013-02-14 10:42:00,37.0,22.0,-100.00,NW,320,2.0,6.0,53,0.00,,,-99.99,,2013-02-14 15:42:00,
2013-02-14 10:52:00,38.0,22.0,-100.00,South,170,2.0,6.0,51,0.00,,,-99.99,,2013-02-14 15:52:00,
2013-02-14 11:02:00,38.0,21.0,-100.00,West,270,3.0,7.0,50,0.00,,,-99.99,,2013-02-14 16:02:00,
2013-02-14 11:21:00,38.0,20.0,-100.00,SW,235,2.0,10.0,49,0.00,,,-99.99,,2013-02-14 16:21:00,
2013-02-14 11:32:00,38.0,20.0,-100.00,North,-999,-999.0,-999.0,47,-99.99,,,-99.99,,2013-02-14 16:32:00,
2013-02-14 11:41:00,38.0,21.0,-100.00,WSW,240,3.0,13.0,49,0.00,,,-99.99,,2013-02-14 16:41:00,
2013-02-14 11:51:00,39.0,20.0,-100.00,SW,215,3.0,12.0,45,0.00,,,-99.99,,2013-02-14 16:51:00,
2013-02-14 12:01:00,38.0,19.0,-100.00,WSW,250,4.0,11.0,45,0.00,,,-99.99,,2013-02-14 17:01:00,
2013-02-14 12:11:00,39.0,19.0,-100.00,WSW,245,5.0,12.0,43,0.00,,,-99.99,,2013-02-14 17:11:00,
2013-02-14 12:21:00,39.0,19.0,-100.00,WSW,255,4.0,12.0,42,0.00,,,-99.99,,2013-02-14 17:21:00,
2013-02-14 12:32:00,40.0,19.0,-100.00,WNW,290,4.0,9.0,42,0.00,,,-99.99,,2013-02-14 17:32:00,
2013-02-14 12:42:00,40.0,19.0,-100.00,WNW,300,4.0,11.0,43,0.00,,,-99.99,,2013-02-14 17:42:00,
2013-02-14 12:52:00,40.0,19.0,-100.00,WSW,245,5.0,11.0,42,0.00,,,-99.99,,2013-02-14 17:52:00,
2013-02-14 13:01:00,40.0,20.0,-100.00,West,265,5.0,12.0,43,0.00,,,-99.99,,2013-02-14 18:01:00,
2013-02-14 13:11:00,41.0,20.0,-100.00,WNW,300,4.0,9.0,41,0.00,,,-99.99,,2013-02-14 18:11:00,
2013-02-14 13:23:00,41.0,19.0,-100.00,West,280,2.0,10.0,41,0.00,,,-99.99,,2013-02-14 18:23:00,
2013-02-14 13:32:00,41.0,20.0,-100.00,WSW,255,2.0,9.0,41,0.00,,,-99.99,,2013-02-14 18:32:00,
2013-02-14 13:42:00,42.0,19.0,-100.00,SSW,200,3.0,6.0,38,0.00,,,-99.99,,2013-02-14 18:42:00,
2013-02-14 13:51:00,42.0,19.0,-100.00,West,275,4.0,9.0,39,0.00,,,-99.99,,2013-02-14 18:51:00,
2013-02-14 14:02:00,42.0,19.0,-100.00,SSW,195,3.0,9.0,39,0.00,,,-99.99,,2013-02-14 19:02:00,
2013-02-14 14:11:00,42.0,18.0,-100.00,South,185,2.0,9.0,37,0.00,,,-99.99,,2013-02-14 19:11:00,
2013-02-14 14:21:00,42.0,19.0,-100.00,NW,320,3.0,10.0,38,0.00,,,-99.99,,2013-02-14 19:21:00,
2013-02-14 14:32:00,43.0,19.0,-100.00,West,260,4.0,6.0,37,0.00,,,-99.99,,2013-02-14 19:32:00,
2013-02-14 14:42:00,43.0,19.0,-100.00,WNW,300,2.0,7.0,38,0.00,,,-99.99,,2013-02-14 19:42:00,
2013-02-14 14:51:00,43.0,19.0,-100.00,SW,235,4.0,8.0,38,0.00,,,-99.99,,2013-02-14 19:51:00,
2013-02-14 15:01:00,43.0,18.0,-100.00,West,280,3.0,7.0,37,0.00,,,-99.99,,2013-02-14 20:01:00,
2013-02-14 15:11:00,43.0,19.0,-100.00,SW,215,2.0,4.0,38,0.00,,,-99.99,,2013-02-14 20:11:00,
2013-02-14 15:21:00,42.0,18.0,-100.00,North,350,2.0,6.0,37,0.00,,,-99.99,,2013-02-14 20:21:00,
2013-02-14 15:32:00,43.0,19.0,-100.00,WNW,290,2.0,5.0,37,0.00,,,-99.99,,2013-02-14 20:32:00,
2013-02-14 15:42:00,43.0,20.0,-100.00,West,265,1.0,4.0,40,0.00,,,-99.99,,2013-02-14 20:42:00,
2013-02-14 15:52:00,43.0,19.0,-100.00,NW,310,2.0,5.0,37,0.00,,,-99.99,,2013-02-14 20:52:00,
2013-02-14 16:02:00,43.0,20.0,-100.00,West,280,2.0,4.0,39,0.00,,,-99.99,,2013-02-14 21:02:00,
2013-02-14 16:11:00,42.0,19.0,-100.00,SE,135,1.0,3.0,39,0.00,,,-99.99,,2013-02-14 21:11:00,
2013-02-14 16:21:00,42.0,20.0,-100.00,South,175,1.0,4.0,41,0.00,,,-99.99,,2013-02-14 21:21:00,
2013-02-14 16:32:00,41.0,20.0,-100.00,ENE,70,0.0,4.0,41,0.00,,,-99.99,,2013-02-14 21:32:00,
2013-02-14 16:42:00,41.0,19.0,-100.00,NNW,340,1.0,4.0,40,0.00,,,-99.99,,2013-02-14 21:42:00,
2013-02-14 16:51:00,41.0,20.0,-100.00,ESE,120,1.0,2.0,42,0.00,,,-99.99,,2013-02-14 21:51:00,
2013-02-14 17:02:00,41.0,20.0,-100.00,SSW,195,1.0,2.0,42,0.00,,,-99.99,,2013-02-14 22:02:00,
2013-02-14 17:11:00,40.0,20.0,-100.00,West,260,1.0,3.0,42,0.00,,,-99.99,,2013-02-14 22:11:00,
2013-02-14 17:21:00,40.0,20.0,-100.00,West,270,1.0,5.0,44,0.00,,,-99.99,,2013-02-14 22:21:00,
2013-02-14 17:32:00,38.0,22.0,-100.00,North,-999,-999.0,-999.0,51,0.00,,,-99.99,,2013-02-14 22:32:00,
2013-02-14 17:42:00,38.0,22.0,-100.00,North,350,0.0,2.0,54,0.00,,,-99.99,,2013-02-14 22:42:00,
2013-02-14 17:51:00,36.0,25.0,-100.00,NNE,20,1.0,1.0,64,0.00,,,-99.99,,2013-02-14 22:51:00,
2013-02-14 18:01:00,35.0,25.0,-100.00,NNE,20,1.0,1.0,67,0.00,,,-99.99,,2013-02-14 23:01:00,
2013-02-14 18:11:00,34.0,25.0,-100.00,NNE,30,1.0,1.0,68,0.00,,,-99.99,,2013-02-14 23:11:00,
2013-02-14 18:21:00,34.0,24.0,-100.00,NE,45,1.0,1.0,67,0.00,,,-99.99,,2013-02-14 23:21:00,
2013-02-14 18:32:00,33.0,24.0,-100.00,North,355,1.0,2.0,69,0.00,,,-99.99,,2013-02-14 23:32:00,
2013-02-14 18:42:00,33.0,24.0,-100.00,North,0,1.0,1.0,70,0.00,,,-99.99,,2013-02-14 23:42:00,
2013-02-14 18:52:00,32.0,23.0,-100.00,North,350,1.0,2.0,69,0.00,,,-99.99,,2013-02-14 23:52:00,
2013-02-14 19:01:00,32.0,22.0,-100.00,North,350,1.0,2.0,66,0.00,,,-99.99,,2013-02-15 00:01:00,
2013-02-14 19:11:00,32.0,23.0,-100.00,SSE,150,1.0,3.0,69,0.00,,,-99.99,,2013-02-15 00:11:00,
2013-02-14 19:22:00,32.0,23.0,-100.00,North,350,0.0,1.0,68,0.00,,,-99.99,,2013-02-15 00:22:00,
2013-02-14 19:32:00,31.0,23.0,-100.00,North,-999,-999.0,-999.0,69,0.00,,,-99.99,,2013-02-15 00:32:00,
2013-02-14 19:42:00,31.0,22.0,-100.00,North,0,0.0,1.0,67,0.00,,,-99.99,,2013-02-15 00:42:00,
2013-02-14 19:51:00,31.0,22.0,-100.00,SE,135,1.0,2.0,68,0.00,,,-99.99,,2013-02-15 00:51:00,
2013-02-14 20:02:00,30.0,22.0,-100.00,North,-999,-999.0,-999.0,71,0.00,,,-99.99,,2013-02-15 01:02:00,
2013-02-14 20:11:00,30.0,22.0,-100.00,North,-999,-999.0,-999.0,71,0.00,,,-99.99,,2013-02-15 01:11:00,
2013-02-14 20:21:00,30.0,22.0,-100.00,North,10,0.0,1.0,71,0.00,,,-99.99,,2013-02-15 01:21:00,
2013-02-14 20:32:00,30.0,22.0,-100.00,ENE,60,0.0,1.0,72,0.00,,,-99.99,,2013-02-15 01:32:00,
2013-02-14 20:41:00,30.0,22.0,-100.00,NW,315,1.0,1.0,73,0.00,,,-99.99,,2013-02-15 01:41:00,
2013-02-14 20:51:00,30.0,22.0,-100.00,NNW,345,1.0,2.0,71,0.00,,,-99.99,,2013-02-15 01:51:00,
2013-02-14 21:01:00,30.0,21.0,-100.00,West,280,0.0,1.0,70,0.00,,,-99.99,,2013-02-15 02:01:00,
2013-02-14 21:11:00,30.0,21.0,-100.00,WNW,285,0.0,1.0,70,0.00,,,-99.99,,2013-02-15 02:11:00,
2013-02-14 21:21:00,30.0,21.0,-100.00,North,-999,-999.0,-999.0,70,0.00,,,-99.99,,2013-02-15 02:21:00,
2013-02-14 21:32:00,29.0,21.0,-100.00,SSW,210,0.0,2.0,71,0.00,,,-99.99,,2013-02-15 02:32:00,
2013-02-14 21:41:00,29.0,22.0,-100.00,NNW,335,1.0,1.0,72,0.00,,,-99.99,,2013-02-15 02:41:00,
2013-02-14 21:52:00,29.0,21.0,-100.00,NW,315,1.0,3.0,73,0.00,,,-99.99,,2013-02-15 02:52:00,
2013-02-14 22:02:00,29.0,22.0,-100.00,NW,305,1.0,3.0,74,0.00,,,-99.99,,2013-02-15 03:02:00,
2013-02-14 22:11:00,29.0,22.0,-100.00,WNW,295,2.0,3.0,74,0.00,,,-99.99,,2013-02-15 03:11:00,
2013-02-14 22:22:00,29.0,22.0,-100.00,NW,315,1.0,3.0,74,0.00,,,-99.99,,2013-02-15 03:22:00,
2013-02-14 22:32:00,29.0,22.0,-100.00,NW,315,1.0,3.0,74,0.00,,,-99.99,,2013-02-15 03:32:00,
2013-02-14 22:42:00,29.0,22.0,-100.00,NW,305,2.0,4.0,74,0.00,,,-99.99,,2013-02-15 03:42:00,
2013-02-14 22:51:00,29.0,22.0,-100.00,East,90,1.0,2.0,74,0.00,,,-99.99,,2013-02-15 03:51:00,
2013-02-14 23:01:00,29.0,22.0,-100.00,WNW,290,1.0,2.0,74,0.00,,,-99.99,,2013-02-15 04:01:00,
2013-02-14 23:11:00,29.0,22.0,-100.00,North,10,1.0,2.0,74,0.00,,,-99.99,,2013-02-15 04:11:00,
2013-02-14 23:21:00,29.0,22.0,-100.00,North,350,0.0,1.0,74,0.00,,,-99.99,,2013-02-15 04:21:00,
2013-02-14 23:32:00,29.0,22.0,-100.00,ENE,70,0.0,1.0,74,0.00,,,-99.99,,2013-02-15 04:32:00,
2013-02-14 23:42:00,29.0,22.0,-100.00,East,80,0.0,1.0,75,0.00,,,-99.99,,2013-02-15 04:42:00,
2013-02-14 23:52:00,29.0,22.0,-100.00,NW,315,0.0,1.0,75,0.00,,,-99.99,,2013-02-15 04:52:00,